Location: Clarion
(42.7316°N, 93.7330°W)
Time: 08:54:30
(UTC+00:00)

Cosmos 2251 Rocket - Pass Details

Date: 22 April 2026
Orbit: 760 x 788 km, 74.0° (Epoch: 16 May)

Event Time Altitude Azimuth Distance (km) Brightness Sun altitude
Rises 04:53:27 0° 341° (NNW) 3,277 7.9 -32.1°
Reaches altitude 10° 04:55:51 10° 343° (NNW) 2,348 6.9 -32.3°
Enters shadow 04:59:35 46° 353° (N) 1,050 4.4 -32.5°
